Hourly Weather Ludhiana

Today, 20 June, Sunday

Time Temperature Precipitation Wind Pressure Humidity
00:00 +32°C° 0 mm 5 mps 729 mmHg 56%
01:00 +30°C° 0 mm 5 mps 729 mmHg 57%
02:00 +30°C° 0 mm 4 mps 729 mmHg 59%
03:00 +30°C° 0 mm 4 mps 729 mmHg 60%
04:00 +30°C° 0 mm 3 mps 729 mmHg 60%
05:00 +29°C° 0 mm 3 mps 729 mmHg 63%
06:00 +30°C° 0 mm 3 mps 729 mmHg 58%
07:00 +33°C° 0 mm 3 mps 729 mmHg 53%
08:00 +34°C° 0 mm 3 mps 730 mmHg 47%
09:00 +36°C° 0 mm 3 mps 729 mmHg 42%
10:00 +38°C° 0 mm 3 mps 729 mmHg 36%
11:00 +40°C° 0 mm 3 mps 729 mmHg 31%
12:00 +41°C° 0 mm 2 mps 728 mmHg 26%
13:00 +43°C° 0 mm 2 mps 728 mmHg 22%
14:00 +45°C° 0 mm 2 mps 727 mmHg 18%
15:00 +45°C° 0 mm 2 mps 727 mmHg 17%
16:00 +45°C° 0 mm 2 mps 726 mmHg 16%
17:00 +45°C° 0 mm 2 mps 726 mmHg 15%
18:00 +43°C° 0 mm 3 mps 726 mmHg 18%
19:00 +42°C° 0 mm 4 mps 727 mmHg 21%
20:00 +40°C° 0 mm 5 mps 727 mmHg 24%
21:00 +40°C° 0 mm 5 mps 728 mmHg 30%
22:00 +39°C° 0 mm 5 mps 728 mmHg 37%
23:00 +37°C° 0 mm 5 mps 729 mmHg 43%

Tomorrow, 21 June, Monday

Time Temperature Precipitation Wind Pressure Humidity
00:00 +36°C° 0 mm 5 mps 728 mmHg 46%
01:00 +36°C° 0 mm 5 mps 728 mmHg 48%
02:00 +35°C° 0 mm 5 mps 728 mmHg 51%
03:00 +34°C° 0 mm 4 mps 728 mmHg 53%
04:00 +34°C° 0 mm 4 mps 728 mmHg 55%
05:00 +33°C° 0 mm 4 mps 728 mmHg 57%
06:00 +35°C° 0 mm 4 mps 729 mmHg 52%
07:00 +36°C° 0 mm 5 mps 729 mmHg 48%
08:00 +37°C° 0 mm 5 mps 730 mmHg 43%
09:00 +40°C° 0 mm 4 mps 730 mmHg 38%
10:00 +42°C° 0 mm 3 mps 730 mmHg 33%
11:00 +42°C° 0 mm 2 mps 729 mmHg 27%
12:00 +43°C° 0 mm 2 mps 729 mmHg 24%
13:00 +45°C° 0 mm 2 mps 728 mmHg 21%
14:00 +45°C° 0 mm 1 mps 728 mmHg 18%
15:00 +46°C° 0 mm 2 mps 727 mmHg 18%
16:00 +45°C° 0 mm 2 mps 727 mmHg 18%
17:00 +45°C° 0 mm 2 mps 727 mmHg 18%
18:00 +43°C° 0 mm 2 mps 727 mmHg 19%
19:00 +42°C° 0 mm 2 mps 727 mmHg 20%
20:00 +41°C° 0 mm 2 mps 727 mmHg 21%
21:00 +41°C° 0 mm 2 mps 728 mmHg 22%
22:00 +40°C° 0 mm 2 mps 728 mmHg 22%
23:00 +40°C° 0 mm 2 mps 728 mmHg 22%

Day after tomorrow, 22 June, Tuesday

Time Temperature Precipitation Wind Pressure Humidity
00:00 +39°C° 0 mm 2 mps 728 mmHg 25%
01:00 +38°C° 0 mm 2 mps 728 mmHg 28%
02:00 +37°C° 0 mm 2 mps 728 mmHg 31%
03:00 +36°C° 0 mm 2 mps 728 mmHg 34%
04:00 +35°C° 0 mm 2 mps 728 mmHg 37%
05:00 +35°C° 0 mm 2 mps 728 mmHg 41%
06:00 +36°C° 0 mm 2 mps 729 mmHg 36%
07:00 +38°C° 0 mm 3 mps 730 mmHg 31%
08:00 +40°C° 0 mm 3 mps 730 mmHg 27%
09:00 +42°C° 0 mm 3 mps 730 mmHg 23%
10:00 +44°C° 0 mm 3 mps 730 mmHg 18%
11:00 +47°C° 0 mm 4 mps 730 mmHg 14%
12:00 +48°C° 0 mm 4 mps 729 mmHg 13%
13:00 +49°C° 0 mm 4 mps 729 mmHg 12%
14:00 +50°C° 0 mm 4 mps 728 mmHg 11%
15:00 +49°C° 0 mm 5 mps 728 mmHg 11%
16:00 +49°C° 0 mm 5 mps 727 mmHg 11%
17:00 +49°C° 0 mm 5 mps 727 mmHg 11%
18:00 +48°C° 0 mm 5 mps 727 mmHg 13%
19:00 +46°C° 0 mm 6 mps 727 mmHg 15%
20:00 +45°C° 0 mm 6 mps 728 mmHg 17%
21:00 +44°C° 0 mm 6 mps 728 mmHg 19%
22:00 +42°C° 0 mm 5 mps 728 mmHg 21%
23:00 +41°C° 0 mm 5 mps 728 mmHg 23%

23 June, Wednesday

Time Temperature Precipitation Wind Pressure Humidity
00:00 +40°C° 0 mm 5 mps 728 mmHg 25%
01:00 +38°C° 0 mm 4 mps 728 mmHg 27%
02:00 +38°C° 0 mm 3 mps 728 mmHg 29%
03:00 +38°C° 0 mm 3 mps 728 mmHg 29%
04:00 +37°C° 0 mm 2 mps 729 mmHg 30%
05:00 +37°C° 0 mm 2 mps 729 mmHg 31%
06:00 +38°C° 0 mm 2 mps 729 mmHg 31%
07:00 +39°C° 0 mm 3 mps 730 mmHg 31%
08:00 +40°C° 0 mm 3 mps 730 mmHg 30%
09:00 +42°C° 0 mm 3 mps 730 mmHg 27%
10:00 +44°C° 0 mm 3 mps 730 mmHg 24%
11:00 +47°C° 0 mm 4 mps 730 mmHg 20%
12:00 +48°C° 0 mm 4 mps 729 mmHg 19%
13:00 +49°C° 0 mm 4 mps 729 mmHg 17%
14:00 +50°C° 0 mm 4 mps 728 mmHg 16%
15:00 +48°C° 0 mm 6 mps 728 mmHg 18%
16:00 +46°C° 0 mm 7 mps 728 mmHg 20%
17:00 +45°C° 0 mm 8 mps 727 mmHg 22%
18:00 +44°C° 0.1 mm 6 mps 728 mmHg 23%
19:00 +42°C° 0.1 mm 4 mps 728 mmHg 25%
20:00 +41°C° 0.1 mm 2 mps 728 mmHg 26%
21:00 +39°C° 0.5 mm 2 mps 728 mmHg 29%
22:00 +38°C° 0.5 mm 2 mps 729 mmHg 32%
23:00 +37°C° 0.5 mm 2 mps 729 mmHg 36%

24 June, Thursday

Time Temperature Precipitation Wind Pressure Humidity
00:00 +37°C° 0.1 mm 2 mps 728 mmHg 35%
01:00 +37°C° 0.1 mm 2 mps 728 mmHg 35%
02:00 +37°C° 0.1 mm 2 mps 727 mmHg 34%
03:00 +37°C° 0 mm 2 mps 728 mmHg 35%
04:00 +36°C° 0 mm 2 mps 728 mmHg 37%
05:00 +35°C° 0 mm 2 mps 728 mmHg 38%
06:00 +37°C° 0 mm 3 mps 728 mmHg 34%
07:00 +40°C° 0 mm 4 mps 729 mmHg 31%
08:00 +42°C° 0 mm 5 mps 729 mmHg 28%
09:00 +43°C° 0 mm 5 mps 729 mmHg 25%
10:00 +46°C° 0 mm 5 mps 729 mmHg 23%
11:00 +47°C° 0 mm 4 mps 728 mmHg 21%
12:00 +48°C° 0 mm 4 mps 727 mmHg 18%
13:00 +49°C° 0 mm 4 mps 727 mmHg 16%
14:00 +50°C° 0 mm 4 mps 726 mmHg 14%
15:00 +50°C° 0 mm 5 mps 725 mmHg 13%
16:00 +50°C° 0 mm 5 mps 725 mmHg 12%
17:00 +50°C° 0 mm 5 mps 724 mmHg 12%
18:00 +48°C° 0 mm 5 mps 724 mmHg 14%
19:00 +45°C° 0 mm 4 mps 725 mmHg 17%
20:00 +43°C° 0 mm 4 mps 725 mmHg 20%
21:00 +42°C° 0 mm 4 mps 726 mmHg 22%
22:00 +41°C° 0 mm 4 mps 726 mmHg 25%
23:00 +40°C° 0 mm 4 mps 726 mmHg 28%

25 June, Friday

Time Temperature Precipitation Wind Pressure Humidity
00:00 +40°C° 0 mm 4 mps 726 mmHg 28%
01:00 +40°C° 0 mm 4 mps 725 mmHg 29%
02:00 +38°C° 0 mm 3 mps 725 mmHg 29%
03:00 +38°C° 0 mm 3 mps 725 mmHg 31%
04:00 +37°C° 0 mm 2 mps 725 mmHg 32%
05:00 +36°C° 0 mm 2 mps 726 mmHg 34%
06:00 +38°C° 0 mm 3 mps 726 mmHg 31%
07:00 +41°C° 0 mm 5 mps 726 mmHg 28%
08:00 +42°C° 0 mm 6 mps 726 mmHg 25%
09:00 +45°C° 0 mm 5 mps 726 mmHg 22%
10:00 +47°C° 0 mm 4 mps 726 mmHg 19%
11:00 +47°C° 0 mm 3 mps 726 mmHg 16%
12:00 +49°C° 0 mm 4 mps 725 mmHg 15%
13:00 +50°C° 0 mm 4 mps 725 mmHg 13%
14:00 +51°C° 0 mm 4 mps 724 mmHg 12%
15:00 +49°C° 0 mm 5 mps 724 mmHg 14%
16:00 +47°C° 0 mm 6 mps 723 mmHg 16%
17:00 +45°C° 0 mm 7 mps 723 mmHg 18%
18:00 +44°C° 0 mm 7 mps 724 mmHg 19%
19:00 +42°C° 0 mm 6 mps 724 mmHg 21%
20:00 +41°C° 0 mm 5 mps 724 mmHg 23%
21:00 +40°C° 0 mm 5 mps 725 mmHg 26%
22:00 +39°C° 0 mm 5 mps 726 mmHg 29%
23:00 +37°C° 0 mm 5 mps 726 mmHg 32%
Show more

We Need Your Consent

Meteoprog and our Service Providers may store and access personal data such as cookies, device identifiers or other similar technologies on your device and process such data to personalise content and ads, as well as provide social media features and to analyse the traffic.

  • Store and/or access information on your device

    Cookies, device identifiers or other information can be stored or accessed on your device for the purposes indicated above.

  • Personalised ads and content, ad and content measurement, audience insights, and products development

    Ads and content can be personalised based on a profile. More data can be added to better personalise ads and content. Ad and content performance can be measured. Insights about the audience who saw the ads and content can be derived. Such data can be used to develop or improve user’s experience, systems and software.

By clicking ‘I Agree’ you will allow the use of indicated cookies, device identifiers, web beacons or other similar technologies. Your settings can be changed in the browser on your device.

For certain purposes, legitimate interests may be relied on, rather than consent. You can read more about this in our Privacy and Cookie Policy.